When you browse on this site, cookies collect data to enhance your experience and personalize the content and advertising you see.
Visit our Privacy Policy to learn more. By continuing to use the site, you agree to this use of cookies and data.

Meteo pe oră la Luanda

Astăzi, 10 Iulie, Vineri

Timp Temperatura Precipitaţii Vânt Presiune Umiditate
00:00 +21°C° 0 mm 3 m/s 755 mmHg 93%
01:00 +23°C° 0 mm 2 m/s 755 mmHg 89%
02:00 +23°C° 0 mm 2 m/s 755 mmHg 87%
03:00 +23°C° 0 mm 2 m/s 755 mmHg 84%
04:00 +24°C° 0 mm 2 m/s 754 mmHg 82%
05:00 +23°C° 0 mm 2 m/s 754 mmHg 84%
06:00 +23°C° 0 mm 1 m/s 755 mmHg 86%
07:00 +23°C° 0 mm 1 m/s 755 mmHg 85%
08:00 +25°C° 0 mm 1 m/s 755 mmHg 74%
09:00 +27°C° 0 mm 1 m/s 755 mmHg 64%
10:00 +29°C° 0 mm 1 m/s 755 mmHg 53%
11:00 +30°C° 0 mm 2 m/s 755 mmHg 51%
12:00 +32°C° 0 mm 4 m/s 754 mmHg 49%
13:00 +32°C° 0 mm 5 m/s 754 mmHg 47%
14:00 +30°C° 0 mm 6 m/s 754 mmHg 51%
15:00 +29°C° 0 mm 6 m/s 753 mmHg 55%
16:00 +28°C° 0 mm 7 m/s 753 mmHg 59%
17:00 +26°C° 0 mm 6 m/s 753 mmHg 66%
18:00 +24°C° 0 mm 6 m/s 753 mmHg 74%
19:00 +22°C° 0 mm 6 m/s 754 mmHg 82%
20:00 +22°C° 0 mm 5 m/s 754 mmHg 84%
21:00 +21°C° 0 mm 5 m/s 755 mmHg 87%
22:00 +21°C° 0 mm 4 m/s 755 mmHg 89%
23:00 +20°C° 0 mm 3 m/s 755 mmHg 91%

Mâine, 11 Iulie, Sâmbătă

Timp Temperatura Precipitaţii Vânt Presiune Umiditate
00:00 +20°C° 0 mm 3 m/s 755 mmHg 93%
01:00 +19°C° 0 mm 2 m/s 755 mmHg 94%
02:00 +19°C° 0 mm 2 m/s 755 mmHg 95%
03:00 +20°C° 0 mm 1 m/s 755 mmHg 95%
04:00 +19°C° 0 mm 1 m/s 754 mmHg 95%
05:00 +20°C° 0 mm 1 m/s 755 mmHg 94%
06:00 +19°C° 0 mm 2 m/s 755 mmHg 93%
07:00 +19°C° 0 mm 2 m/s 755 mmHg 93%
08:00 +23°C° 0 mm 2 m/s 755 mmHg 81%
09:00 +25°C° 0 mm 2 m/s 756 mmHg 70%
10:00 +27°C° 0 mm 1 m/s 756 mmHg 58%
11:00 +29°C° 0 mm 2 m/s 755 mmHg 53%
12:00 +30°C° 0 mm 3 m/s 754 mmHg 48%
13:00 +33°C° 0 mm 4 m/s 754 mmHg 43%
14:00 +30°C° 0 mm 5 m/s 753 mmHg 48%
15:00 +29°C° 0 mm 5 m/s 753 mmHg 53%
16:00 +27°C° 0 mm 6 m/s 753 mmHg 58%
17:00 +26°C° 0 mm 5 m/s 753 mmHg 66%
18:00 +23°C° 0 mm 5 m/s 753 mmHg 73%
19:00 +22°C° 0 mm 5 m/s 753 mmHg 81%
20:00 +21°C° 0 mm 4 m/s 754 mmHg 84%
21:00 +20°C° 0 mm 3 m/s 754 mmHg 87%
22:00 +20°C° 0 mm 2 m/s 755 mmHg 91%
23:00 +19°C° 0 mm 2 m/s 755 mmHg 91%

Poimâine, 12 Iulie, Duminică

Timp Temperatura Precipitaţii Vânt Presiune Umiditate
00:00 +19°C° 0 mm 2 m/s 755 mmHg 92%
01:00 +19°C° 0 mm 2 m/s 755 mmHg 93%
02:00 +19°C° 0 mm 2 m/s 755 mmHg 93%
03:00 +20°C° 0 mm 1 m/s 755 mmHg 93%
04:00 +20°C° 0 mm 1 m/s 755 mmHg 93%
05:00 +21°C° 0 mm 1 m/s 755 mmHg 89%
06:00 +22°C° 0 mm 1 m/s 755 mmHg 84%
07:00 +22°C° 0 mm 1 m/s 756 mmHg 80%
08:00 +23°C° 0 mm 1 m/s 756 mmHg 74%
09:00 +24°C° 0 mm 1 m/s 756 mmHg 68%
10:00 +23°C° 0 mm 0 m/s 756 mmHg 63%
11:00 +26°C° 0 mm 1 m/s 756 mmHg 59%
12:00 +27°C° 0 mm 2 m/s 755 mmHg 56%
13:00 +28°C° 0 mm 2 m/s 755 mmHg 53%
14:00 +28°C° 0 mm 3 m/s 754 mmHg 55%
15:00 +27°C° 0 mm 4 m/s 753 mmHg 56%
16:00 +27°C° 0 mm 5 m/s 753 mmHg 58%
17:00 +25°C° 0 mm 5 m/s 753 mmHg 65%
18:00 +23°C° 0 mm 4 m/s 754 mmHg 71%
19:00 +21°C° 0 mm 4 m/s 754 mmHg 78%
20:00 +21°C° 0 mm 4 m/s 755 mmHg 81%
21:00 +21°C° 0 mm 3 m/s 755 mmHg 84%
22:00 +20°C° 0 mm 3 m/s 756 mmHg 86%
23:00 +20°C° 0 mm 2 m/s 756 mmHg 88%

13 Iulie, Luni

Timp Temperatura Precipitaţii Vânt Presiune Umiditate
00:00 +19°C° 0 mm 2 m/s 756 mmHg 90%
01:00 +19°C° 0 mm 2 m/s 756 mmHg 92%
02:00 +20°C° 0 mm 2 m/s 755 mmHg 89%
03:00 +22°C° 0 mm 1 m/s 755 mmHg 85%
04:00 +22°C° 0 mm 1 m/s 755 mmHg 82%
05:00 +22°C° 0 mm 1 m/s 755 mmHg 83%
06:00 +22°C° 0 mm 1 m/s 755 mmHg 84%
07:00 +20°C° 0 mm 2 m/s 755 mmHg 85%
08:00 +23°C° 0 mm 1 m/s 756 mmHg 76%
09:00 +25°C° 0 mm 1 m/s 756 mmHg 66%
10:00 +27°C° 0 mm 1 m/s 756 mmHg 57%
11:00 +28°C° 0 mm 1 m/s 755 mmHg 55%
12:00 +29°C° 0 mm 2 m/s 754 mmHg 53%
13:00 +29°C° 0 mm 3 m/s 754 mmHg 51%
14:00 +28°C° 0 mm 4 m/s 753 mmHg 54%
15:00 +28°C° 0 mm 5 m/s 753 mmHg 57%
16:00 +27°C° 0 mm 6 m/s 752 mmHg 60%
17:00 +26°C° 0 mm 5 m/s 752 mmHg 67%
18:00 +23°C° 0 mm 5 m/s 753 mmHg 74%
19:00 +22°C° 0 mm 5 m/s 753 mmHg 81%
20:00 +22°C° 0 mm 4 m/s 754 mmHg 82%
21:00 +21°C° 0 mm 3 m/s 755 mmHg 84%
22:00 +21°C° 0 mm 3 m/s 755 mmHg 85%
23:00 +23°C° 0 mm 2 m/s 755 mmHg 83%

14 Iulie, Marţi

Timp Temperatura Precipitaţii Vânt Presiune Umiditate
00:00 +23°C° 0 mm 2 m/s 755 mmHg 80%
01:00 +24°C° 0 mm 2 m/s 755 mmHg 77%
02:00 +23°C° 0 mm 2 m/s 755 mmHg 77%
03:00 +23°C° 0 mm 1 m/s 755 mmHg 78%
04:00 +23°C° 0 mm 1 m/s 755 mmHg 78%
05:00 +23°C° 0 mm 1 m/s 755 mmHg 78%
06:00 +23°C° 0 mm 1 m/s 755 mmHg 77%
07:00 +23°C° 0 mm 1 m/s 755 mmHg 77%
08:00 +25°C° 0 mm 1 m/s 755 mmHg 70%
09:00 +26°C° 0 mm 1 m/s 755 mmHg 64%
10:00 +28°C° 0 mm 1 m/s 755 mmHg 57%
11:00 +29°C° 0 mm 2 m/s 755 mmHg 54%
12:00 +30°C° 0 mm 3 m/s 754 mmHg 50%
13:00 +32°C° 0 mm 4 m/s 753 mmHg 46%
14:00 +30°C° 0 mm 5 m/s 752 mmHg 51%
15:00 +29°C° 0 mm 5 m/s 752 mmHg 56%
16:00 +27°C° 0 mm 6 m/s 751 mmHg 62%
17:00 +26°C° 0 mm 6 m/s 751 mmHg 68%
18:00 +24°C° 0 mm 6 m/s 752 mmHg 74%
19:00 +22°C° 0 mm 5 m/s 752 mmHg 81%
20:00 +22°C° 0 mm 4 m/s 753 mmHg 84%
21:00 +21°C° 0 mm 3 m/s 754 mmHg 87%
22:00 +21°C° 0 mm 2 m/s 755 mmHg 90%
23:00 +22°C° 0 mm 1 m/s 755 mmHg 87%

15 Iulie, Miercuri

Timp Temperatura Precipitaţii Vânt Presiune Umiditate
00:00 +22°C° 0 mm 1 m/s 755 mmHg 85%
01:00 +23°C° 0 mm 1 m/s 755 mmHg 82%
02:00 +23°C° 0 mm 1 m/s 755 mmHg 82%
03:00 +23°C° 0 mm 2 m/s 754 mmHg 81%
04:00 +23°C° 0 mm 2 m/s 754 mmHg 81%
05:00 +23°C° 0 mm 2 m/s 755 mmHg 81%
06:00 +23°C° 0 mm 2 m/s 755 mmHg 80%
07:00 +23°C° 0 mm 2 m/s 755 mmHg 80%
08:00 +25°C° 0 mm 2 m/s 755 mmHg 71%
09:00 +27°C° 0 mm 1 m/s 755 mmHg 63%
10:00 +29°C° 0 mm 1 m/s 755 mmHg 54%
11:00 +30°C° 0 mm 2 m/s 754 mmHg 49%
12:00 +33°C° 0 mm 3 m/s 754 mmHg 44%
13:00 +34°C° 0 mm 3 m/s 753 mmHg 39%
14:00 +32°C° 0 mm 5 m/s 752 mmHg 46%
15:00 +30°C° 0 mm 6 m/s 752 mmHg 53%
16:00 +28°C° 0 mm 7 m/s 751 mmHg 60%
17:00 +26°C° 0 mm 6 m/s 751 mmHg 69%
18:00 +25°C° 0 mm 5 m/s 752 mmHg 78%
19:00 +22°C° 0 mm 4 m/s 753 mmHg 86%
20:00 +22°C° 0 mm 3 m/s 753 mmHg 89%
21:00 +21°C° 0 mm 2 m/s 754 mmHg 91%
22:00 +22°C° 0 mm 1 m/s 755 mmHg 93%
23:00 +22°C° 0 mm 1 m/s 755 mmHg 92%
Arată mai mult